Location: Belfast
(54.5830°N, 5.9330°W)
Time: 14:06:31
(UTC+01:00)

ISS - Pass Details

Date: 29 May 2017
Orbit: 402 x 408 km, 51.6° (Epoch: 26 May)

Event Time Altitude Azimuth Distance (km) Brightness Sun altitude
Rises 01:22:27 0° 274° (W) 2,334 0.1 -13.8°
Reaches altitude 10° 01:24:39 10° 265° (W) 1,471 -1.1 -13.8°
Maximum altitude 01:27:39 33° 199° (SSW) 709 -3.1 -13.8°
Enters shadow 01:28:33 28° 166° (SSE) 807 -2.9 -13.8°
